Flag for U.S.A. Weather past 2 weeks in Tampa, Florida, U.S.A.

Now
79 °F

Clear.


Feels Like: 82 °F
Forecast: 76 / 90 °F
Wind: 6 mph from Southeast

Location: Tampa, Peter O Knight Airport

Current Time: Aug 28, 2015 at 3:40:31 AM

Latest Report: Aug 28, 2015 at 3:15 AM


Visibility: 10 mi

Pressure: 29.96 "Hg

Humidity: 84%

Dew point: 73 °F

Location of TampaLocation

Historic Weather in Tampa — Graph

°F

Tampa temperature yesterday

Maximum temperature yesterday: 88 °F (at 4:55 PM)
Minimum temperature yesterday: 77 °F (at 6:15 AM)
Average temperature yesterday: 82 °F

Past Weeks' High & Low Weather Summary

 TemperatureHumidityPressure
High97 °F (Aug 22, 2:55 PM)100% (Aug 18, 5:55 AM)30.13 "Hg (Aug 18, 5:55 AM)
Low75 °F (Aug 13, 4:15 PM)47% (Aug 17, 4:55 PM)29.87 "Hg (Aug 24, 7:55 PM)
Average84 °F79%30.00 "Hg
* Reported Aug 13 2:15 AM — Aug 28 2:15 AM, Tampa, Weather by CustomWeather, © 2015

Note: Actual official high and low records may vary slightly from our data, if they occured in-between our weather recording intervals... More about our weather records

Advertising

Tampa weather history for previous 24 hours

 ConditionsComfort  
Time TempWeatherWind HumidityBarometerVisibility
2:15 AM
Fri, Aug 28
81 °FClear.6 mph84%29.98 "Hg10 mi
1:55 AM81 °FClear.6 mph84%29.98 "Hg10 mi
1:35 AM81 °FClear.7 mph84%29.99 "Hg10 mi
1:15 AM81 °FClear.7 mph84%30.00 "Hg10 mi
12:55 AM81 °FClear.5 mph84%30.00 "Hg10 mi
11:55 PM
Thu, Aug 27
81 °FClear.6 mph84%30.00 "Hg10 mi
11:15 PM81 °FClear.5 mph79%29.98 "Hg10 mi
10:55 PM81 °FClear.6 mph84%29.98 "Hg10 mi
10:15 PM82 °FClear.6 mph74%29.98 "Hg10 mi
9:55 PM82 °FClear.7 mph74%29.97 "Hg10 mi
9:35 PM82 °FClear.8 mph79%29.96 "Hg10 mi
9:15 PM82 °FClear.7 mph79%29.95 "Hg10 mi
8:55 PM84 °FSunny.9 mph70%29.94 "Hg10 mi
8:15 PM86 °FSunny.8 mph62%29.94 "Hg10 mi
7:55 PM86 °FSunny.8 mph62%29.94 "Hg10 mi
7:35 PM86 °FSunny.5 mph62%29.93 "Hg10 mi
7:15 PM86 °FSunny.5 mph62%29.93 "Hg10 mi
6:55 PM88 °FSunny.5 mph62%29.93 "Hg10 mi
6:15 PM88 °FSunny.No wind66%29.92 "Hg10 mi
5:55 PM86 °FSunny.3 mph70%29.92 "Hg10 mi
5:15 PM86 °FSunny.5 mph75%29.92 "Hg10 mi
4:55 PM88 °FSunny.No wind70%29.92 "HgN/A
4:35 PM86 °FSunny.3 mph75%29.92 "Hg10 mi
4:15 PM86 °FSunny.3 mph75%29.92 "Hg10 mi
3:55 PM84 °FSunny.3 mph79%29.93 "Hg10 mi
3:35 PM84 °FSunny.3 mph74%29.93 "Hg10 mi
3:15 PM82 °FSunny.No wind79%29.94 "Hg10 mi
2:55 PM82 °FSunny.3 mph79%29.94 "Hg10 mi
2:35 PM82 °FSunny.5 mph84%29.96 "Hg10 mi
1:35 PM81 °FScattered clouds.7 mph84%29.98 "Hg10 mi
1:15 PM81 °FSunny.5 mph79%29.98 "Hg10 mi
12:55 PM81 °FSunny.8 mph79%29.97 "Hg10 mi
12:35 PM81 °FSunny.7 mph89%29.98 "Hg10 mi
12:15 PM81 °FSunny.8 mph84%29.99 "Hg10 mi
11:55 AM81 °FSunny.8 mph84%29.99 "Hg10 mi
11:35 AM81 °FScattered clouds.6 mph89%30.00 "Hg10 mi
11:15 AM81 °FLight rain. Cloudy.6 mph89%29.99 "Hg10 mi
10:55 AM81 °FLight rain. Broken clouds.5 mph89%29.98 "Hg10 mi
10:35 AM81 °FScattered clouds.7 mph84%29.97 "Hg10 mi
10:15 AM81 °FSunny.6 mph79%29.97 "Hg10 mi
9:55 AM79 °FSunny.5 mph84%29.95 "Hg10 mi
9:35 AM77 °FScattered clouds.No wind89%29.96 "Hg10 mi
9:15 AM79 °FRain. Cloudy.6 mph84%29.94 "Hg7 mi
8:55 AM77 °FLight rain. Cloudy.No wind89%29.94 "Hg10 mi
8:35 AM79 °FLight rain. Broken clouds.3 mph89%29.95 "Hg10 mi
8:15 AM81 °FScattered clouds.No wind84%29.94 "Hg10 mi
7:55 AM79 °FPassing clouds.3 mph89%29.94 "Hg10 mi
7:35 AM79 °FPassing clouds.3 mph84%29.93 "Hg10 mi
7:15 AM77 °FPassing clouds.3 mph89%29.92 "Hg10 mi
6:55 AM79 °FHeavy rain. Partly cloudy.7 mph84%29.93 "Hg5 mi
6:35 AM79 °FPassing clouds.3 mph84%29.93 "Hg10 mi
6:15 AM77 °FClear.3 mph89%29.91 "Hg10 mi
5:55 AM79 °FClear.5 mph84%29.91 "Hg10 mi
5:35 AM81 °FClear.7 mph84%29.90 "Hg10 mi
5:15 AM81 °FClear.9 mph84%29.89 "Hg10 mi
4:55 AM81 °FClear.12 mph84%29.89 "Hg10 mi
4:35 AM79 °FClear.5 mph89%29.89 "Hg10 mi
4:15 AM79 °FClear.6 mph94%29.89 "Hg10 mi
3:55 AM81 °FClear.8 mph89%29.89 "Hg10 mi
3:35 AM81 °FClear.6 mph89%29.90 "Hg10 mi
3:15 AM81 °FClear.9 mph89%29.90 "Hg10 mi
Weather by CustomWeather, © 2015

See weather overviewHow to use our weather pages